User: anonymous   Login
Location: Camps Bay
(33.9517°S, 18.3844°E)
Time: 12:11:56
(UTC+00:00)
Language:

SL-27 R/B - Orbit

View from above orbital plane
View from above orbital plane
View from above satellite
View from above satellite

Ground track
Ground track

The orbit data is extracted from the following two-line orbital elements,

1 40354U 14084B   20088.84755840 +.00000701 +00000-0 +18424-4 0  9993
2 40354 074.7390 194.8397 0036553 063.4935 297.0018 15.40102249295721
Epoch (UTC): 28 March 2020 20:20:29
Eccentricity: 0.0036553
inclination: 74.7390°
perigee height: 421 km
apogee height: 471 km
right ascension of ascending node: 194.8397°
argument of perigee: 63.4935°
revolutions per day: 15.40102249
mean anomaly at epoch: 297.0018°
orbit number at epoch: 29572

The dashed part of the orbit path shows where the satellite is in the earth's shadow,  

DLR